Погода в Новониколаевке

Украина / Харьковская область     49°44′59″N   37°20′40″E
темп.,
°C
ветер,
м/с
пор.,
м/с
влажн.,
%
обл.,
%
осадки,
мм/ч
давл.,
гПа
погр.,
м
13 апреля, вт
вт1300:00+12ююв238365 0.0 102242
03:00+11юв1287100 0.0 102211
06:00+10в228774 0.0 102232
09:00+15вюв4863100 0.0 1021487
12:00+15юв6105594 0.0 10211033
15:00+17юв7953100 0.0 10201625
18:00+14ю577878 0.4 1020520
21:00+10ю368617 0.4 1022255
14 апреля, ср
ср1400:00+10ююв0081100 0.0 102115
03:00+10юв228473 0.0 102038
06:00+10в1288100 0.0 101927
09:00+12вюв2380100 0.1 1019449
12:00+14ю2467100 1.3 1018771
15:00+15ю5558100 1.9 10171293
18:00+13зюз3368100 0.1 1016415
21:00+11сз0178100 0.1 101610
15 апреля, чт
чт1500:00+10юз118184 0.0 101512
03:00+8юз11860 0.0 101510
06:00+7юз338985 0.0 101541
09:00+11ююз346994 0.0 1015441
12:00+14ю455513 0.0 1015966
15:00+16ю5648100 0.1 10141875
18:00+12юз5881100 0.7 1014447
21:00+11юв4985100 1.5 1014422
16 апреля, пт
пт1600:00+10ююв488775 1.9 1014366
03:00+9ююз3786100 2.0 1014300
06:00+7ююз379492 0.0 1015221
09:00+9ююз467138 0.0 1016757
12:00+12ю575380 0.0 10161560
15:00+11юз665196 0.0 10161204
18:00+11юз45535 0.0 1017956
21:00+8ююз116510 0.0 101710
17 апреля, сб
сб1700:00+7зюз226948 0.0 101733
03:00+6всв1173100 0.0 101810
06:00+6з117891 0.0 101910
09:00+10з446464 0.0 1018486
12:00+13зюз444684 0.0 10191813
15:00+14зюз343769 0.0 10192132
18:00+12зюз555358 0.0 1020839
21:00+10з2363100 0.0 102153